Погода на Таблас-Айленд

Филиппины     12°20′36″N   122°01′09″E
темп.,
°C
ветер,
м/с
пор.,
м/с
влажн.,
%
обл.,
%
осадки,
мм/ч
давл.,
гПа
погр.,
м
26 февраля, пт
пт2623:00+25ссв128080 0.0 100965
02:00+24ссв248490 0.0 1007125
05:00+24с3587100 0.1 1007264
08:00+26ссв357999 0.1 1009448
11:00+29всв4467100 0.0 1009830
14:00+29в336893 0.0 1007704
17:00+28всв33744 0.0 1007362
20:00+26св23817 0.0 1008107
27 февраля, сб
сб2723:00+25ссв24810 0.0 1009122
02:00+25ссв358627 0.0 1008280
05:00+25с34882 0.0 1008161
08:00+27ссв35801 0.0 1010574
11:00+29св35700 0.1 1010710
14:00+29ссв35760 0.5 1008812
17:00+29ссв46720 0.2 1007668
20:00+26ссв48830 0.3 1010364
28 февраля, вс
вс2823:00+26ссв36866 0.5 1010345
02:00+26ссв488353 0.9 1009416
05:00+25ссв368746 0.9 1009302
08:00+27ссв477873 2.0 1012556
11:00+28св457978 0.6 1012699
14:00+28св457885 1.6 1010670
17:00+29св486967 0.3 1009569
20:00+26ссв497949 0.3 1011385
1 марта, пн
пн123:00+26св378561 0.0 1011404
02:00+25св358642 0.0 1010243
05:00+26св598147 0.0 1010534
08:00+27ссв587926 0.0 1013585
11:00+28св568246 0.7 1013659
14:00+25св469272 6.7 1011305
17:00+24ссв4691100 7.6 1011261
20:00+24ссз3484100 12.4 1012101
2 марта, вт
вт223:00+24ссв368681 0.0 1013190
02:00+24ссв468961 0.0 1011281
05:00+24всв378850 0.0 1011447
08:00+26всв368242 0.0 1013633
11:00+28в346718 0.0 1013730
14:00+28в44659 0.0 1011792
17:00+27всв35710 0.0 1011649
20:00+25св24800 0.0 1012115